JQ3CCU-10 Weather Reports


time (UTC)temp
C
wind
direction
speed
KPH
gust
KPH
rain 1hr
cm
rain 24hr
cm
rain mn
cm
humidity
%
barometer
mb
20260509112415 23 0 0.0 0.0 0.00 0.00 0.00 56
20260509105415 24 0 0.0 0.0 0.00 0.00 0.00 55
20260509102415 25 0 0.0 0.0 0.00 0.00 0.00 52
20260509095415 25 0 0.0 0.0 0.00 0.00 0.00 52
20260509092415 27 0 0.0 0.0 0.00 0.00 0.00 49
20260509085415 27 0 0.0 0.0 0.00 0.00 0.00 50
20260509082415 26 0 0.0 0.0 0.00 0.00 0.00 50
20260509075415 26 0 0.0 0.0 0.00 0.00 0.00 49
20260509072415 26 0 0.0 0.0 0.00 0.00 0.00 49
20260509065415 26 0 0.0 0.0 0.00 0.00 0.00 49
20260509062415 26 0 0.0 0.0 0.00 0.00 0.00 48
20260509055415 26 0 0.0 0.0 0.00 0.00 0.00 48
20260509052415 25 0 0.0 0.0 0.00 0.00 0.00 47
20260509045415 26 0 0.0 0.0 0.00 0.00 0.00 51
20260509042415 26 0 0.0 0.0 0.00 0.00 0.00 47
20260509035415 26 0 0.0 0.0 0.00 0.00 0.00 47
20260509032415 26 0 0.0 0.0 0.00 0.00 0.00 44
20260509025415 26 0 0.0 0.0 0.00 0.00 0.00 46
20260509022415 27 0 0.0 0.0 0.00 0.00 0.00 45
20260509015415 28 0 0.0 0.0 0.00 0.00 0.00 41
20260509012415 30 0 0.0 0.0 0.00 0.00 0.00 37
20260509005415 33 0 0.0 0.0 0.00 0.00 0.00 34
20260509002415 33 0 0.0 0.0 0.00 0.00 0.00 34
20260508235415 35 0 0.0 0.0 0.00 0.00 0.00 33
20260508232415 33 0 0.0 0.0 0.00 0.00 0.00 34
20260508225415 31 0 0.0 0.0 0.00 0.00 0.00 38
20260508222415 31 0 0.0 0.0 0.00 0.00 0.00 37
20260508215415 21 0 0.0 0.0 0.00 0.00 0.00 61
20260508212415 20 0 0.0 0.0 0.00 0.00 0.00 64
20260508205415 20 0 0.0 0.0 0.00 0.00 0.00 66
20260508202415 20 0 0.0 0.0 0.00 0.00 0.00 66
20260508195415 20 0 0.0 0.0 0.00 0.00 0.00 65
20260508192415 21 0 0.0 0.0 0.00 0.00 0.00 66
20260508185415 21 0 0.0 0.0 0.00 0.00 0.00 66
20260508182415 21 0 0.0 0.0 0.00 0.00 0.00 67
20260508175415 21 0 0.0 0.0 0.00 0.00 0.00 67
20260508172415 21 0 0.0 0.0 0.00 0.00 0.00 67
20260508165415 21 0 0.0 0.0 0.00 0.00 0.00 67
20260508162415 22 0 0.0 0.0 0.00 0.00 0.00 68
20260508155415 22 0 0.0 0.0 0.00 0.00 0.00 68
20260508152415 22 0 0.0 0.0 0.00 0.00 0.00 68
20260508145415 22 0 0.0 0.0 0.00 0.00 0.00 68
20260508142415 22 0 0.0 0.0 0.00 0.00 0.00 67
20260508135415 23 0 0.0 0.0 0.00 0.00 0.00 72
20260508132415 23 0 0.0 0.0 0.00 0.00 0.00 72
20260508125415 23 0 0.0 0.0 0.00 0.00 0.00 71
20260508122415 23 0 0.0 0.0 0.00 0.00 0.00 66
20260508115415 25 0 0.0 0.0 0.00 0.00 0.00 65